ProjectID,Date,Electric Generation,Electric Utility Import,Facility Electric Load
,YYYY-MM-DD,kW,kW,kW
5,2001-09-01,0.0,,0.0
5,2001-09-02,0.0,,0.0
5,2001-09-03,0.0,,0.0
5,2001-09-04,0.0,,0.0
5,2001-09-05,0.0,,0.0
5,2001-09-06,0.0,,0.0
5,2001-09-07,0.0,,0.0
5,2001-09-08,0.0,,0.0
5,2001-09-09,0.0,,0.0
5,2001-09-10,0.0,,0.0
5,2001-09-11,0.0,,0.0
5,2001-09-12,0.0,,0.0
5,2001-09-13,0.0,,0.0
5,2001-09-14,0.0,,0.0
5,2001-09-15,0.0,,0.0
5,2001-09-16,0.0,,0.0
5,2001-09-17,0.0,,0.0
5,2001-09-18,0.0,,0.0
5,2001-09-19,0.0,,0.0
5,2001-09-20,0.0,,0.0
5,2001-09-21,0.0,,0.0
5,2001-09-22,0.0,,0.0
5,2001-09-23,0.0,,0.0
5,2001-09-24,0.0,,0.0
5,2001-09-25,408.56566666666663,61.547000000000004,470.11266666666666
5,2001-09-26,510.609,3.2055833333333332,513.8145833333333
5,2001-09-27,284.12604166666665,152.16620833333334,436.29224999999997
5,2001-09-28,14.139916666666666,406.374875,420.51479166666667
5,2001-09-29,0.0,363.17670833333335,363.17670833333335
5,2001-09-30,0.0,358.02487500000046,358.02487500000046
5,2001-10-01,0.0,405.19983333333334,405.19983333333334
5,2001-10-02,0.0,490.88100000000003,490.88100000000003
5,2001-10-03,0.0,528.3860833333333,528.3860833333333
5,2001-10-04,0.0,478.52695833333337,478.52695833333337
5,2001-10-05,0.0,480.581125,480.581125
5,2001-10-06,0.0,403.0725,403.0725
5,2001-10-07,0.0,394.67745833333333,394.67745833333333
5,2001-10-08,0.0,410.91724999999997,410.91724999999997
5,2001-10-09,0.0,455.9816666666666,455.9816666666666
5,2001-10-10,322.34570833333333,208.485,530.8307083333334
5,2001-10-11,507.7330416666667,60.774458333333335,568.5075
5,2001-10-12,559.3889583333333,12.007041666666666,571.396
5,2001-10-13,554.2125416666667,0.643375,554.8559166666666
5,2001-10-14,526.5122916666667,3.8437083333333333,530.356
5,2001-10-15,433.13145833333334,36.015499999999996,469.1469583333333
5,2001-10-16,464.499125,3.584416666666671,468.0835416666667
5,2001-10-17,493.72133333333335,1.36475,495.08608333333336
5,2001-10-18,478.4900416666667,0.072,478.5620416666667
5,2001-10-19,525.8161666666666,7.626124999999999,533.4422916666666
5,2001-10-20,486.61645833333336,0.599125,487.21558333333337
5,2001-10-21,480.4817083333333,20.696291666666667,501.178
5,2001-10-22,479.0737916666667,15.616041666666668,494.68983333333335
5,2001-10-23,524.0624583333333,6.268833333333333,530.3312916666666
5,2001-10-24,564.0081666666666,21.632666666666665,585.6408333333333
5,2001-10-25,492.83662499999997,1.1720833333333334,494.0087083333333
5,2001-10-26,477.80483333333336,0.0,477.80483333333336
5,2001-10-27,403.5781666666667,27.288625,430.8667916666667
5,2001-10-28,169.91633333333334,239.946875,409.8632083333333
5,2001-10-29,186.79916666666668,238.2687083333333,425.06787499999996
5,2001-10-30,451.7682916666667,12.373750000000001,464.1420416666667
5,2001-10-31,488.4894166666666,0.002,488.4914166666666
5,2001-11-01,518.2367083333334,4.755791666666666,522.9925000000001
5,2001-11-02,561.8915000000001,10.602125,572.4936250000001
5,2001-11-03,444.8887916666667,0.569125,445.4579166666667
5,2001-11-04,448.25104166666665,0.11662499999999999,448.36766666666665
5,2001-11-05,460.2345,3.7412083333333332,463.9757083333334
5,2001-11-06,462.5768333333333,0.20520833333333333,462.78204166666666
5,2001-11-07,483.24458333333337,0.0,483.24458333333337
5,2001-11-08,502.6972916666667,2.5290416666666666,505.22633333333334
5,2001-11-09,487.439625,0.13895833333333332,487.5785833333333
5,2001-11-10,304.109,106.37804166666666,410.48704166666664
5,2001-11-11,415.0135833333333,5.849666666666667,420.86325
5,2001-11-12,448.01387500000004,0.00025,448.01412500000004
5,2001-11-13,458.60183333333333,0.0,458.60183333333333
5,2001-11-14,477.7030833333333,0.0,477.7030833333333
5,2001-11-15,440.15237499999995,0.4275,440.57987499999996
5,2001-11-16,417.27933333333334,20.623625,437.90295833333334
5,2001-11-17,349.64929166666667,24.243041666666667,373.89233333333334
5,2001-11-18,339.5330833333333,24.847375,364.3804583333333
5,2001-11-19,367.4818333333333,25.517583333333334,392.99941666666666
5,2001-11-20,378.3285,23.785124999999997,402.113625
5,2001-11-21,398.60495833333334,24.372375,422.9773333333333
5,2001-11-22,310.772625,53.79258333333333,364.5652083333333
5,2001-11-23,107.80558333333333,286.1867916666667,393.99237500000004
5,2001-11-24,5.048041666666667,346.73775,351.7857916666667
5,2001-11-25,0.0,343.4928333333333,343.4928333333333
5,2001-11-26,0.0,389.472875,389.472875
5,2001-11-27,0.0,398.7149583333333,398.7149583333333
5,2001-11-28,0.0,426.876875,426.876875
5,2001-11-29,0.0,399.477375,399.477375
5,2001-11-30,0.0,406.18699999999995,406.18699999999995
5,2001-12-01,0.0,367.50354166666665,367.50354166666665
5,2001-12-02,0.0,361.251375,361.251375
5,2001-12-03,0.0,389.3800833333333,389.3800833333333
5,2001-12-04,0.0,385.4476666666667,385.4476666666667
5,2001-12-05,0.0,398.288875,398.288875
5,2001-12-06,0.0,389.05595833333336,389.05595833333336
5,2001-12-07,0.0,400.54375,400.54375
5,2001-12-08,0.0,358.926,358.926
5,2001-12-09,0.0,353.25966666666665,353.25966666666665
5,2001-12-10,1.1849166666666666,386.13645833333294,387.3213749999996
5,2001-12-11,124.50191666666666,273.88925,398.39116666666666
5,2001-12-12,320.1094166666667,113.24616666666667,433.35558333333336
5,2001-12-13,219.54558333333333,192.50033333333332,412.04591666666664
5,2001-12-14,11.117208333333332,396.6261666666667,407.743375
5,2001-12-15,0.0,374.9553750000004,374.9553750000004
5,2001-12-16,0.0,373.7762916666666,373.7762916666666
5,2001-12-17,0.0,399.00466666666665,399.00466666666665
5,2001-12-18,0.0,407.5637916666667,407.5637916666667
5,2001-12-19,0.0,431.80283333333335,431.80283333333335
5,2001-12-20,0.0,405.81962500000003,405.81962500000003
5,2001-12-21,0.0,420.561625,420.561625
5,2001-12-22,77.65429166666667,304.68204166666663,382.3363333333333
5,2001-12-23,258.6562916666667,113.61941666666667,372.27570833333334
5,2001-12-24,294.7010833333333,103.29295833333333,397.99404166666665
5,2001-12-25,293.583875,103.41758333333333,397.0014583333333
5,2001-12-26,118.78841666666666,299.15841666666665,417.9468333333333
5,2001-12-27,196.85912499999998,200.72720833333335,397.5863333333333
5,2001-12-28,416.01133333333377,25.307791666666706,441.3191250000005
5,2001-12-29,394.8005,15.583833333333333,410.38433333333336
5,2001-12-30,382.0139583333333,15.514583333333334,397.5285416666666
5,2001-12-31,392.78125,34.50920833333333,427.29045833333333
5,2002-01-01,393.1927083333333,16.211708333333334,409.40441666666663
5,2002-01-02,418.29129166666667,15.532874999999999,433.82416666666666
5,2002-01-03,398.0641666666667,14.931208333333332,412.9953750000001
5,2002-01-04,410.63033333333334,14.805041666666668,425.435375
5,2002-01-05,373.08445833333286,14.381958333333332,387.4664166666662
5,2002-01-06,354.127,14.751458333333334,368.87845833333336
5,2002-01-07,193.44575,206.4104583333333,399.8562083333333
5,2002-01-08,381.203375,32.56733333333333,413.77070833333335
5,2002-01-09,398.965375,31.190083333333334,430.15545833333334
5,2002-01-10,396.21325,16.326125,412.539375
5,2002-01-11,413.59549999999996,15.374958333333334,428.9704583333333
5,2002-01-12,289.83125,84.098625,373.92987500000004
5,2002-01-13,344.27216666666664,18.408833333333334,362.681
5,2002-01-14,389.18149999999997,15.270708333333333,404.4522083333333
5,2002-01-15,399.92699999999996,15.305166666666667,415.2321666666666
5,2002-01-16,425.3222083333333,16.23870833333333,441.5609166666666
5,2002-01-17,399.91429166666666,15.485208333333333,415.3995
5,2002-01-18,413.3527916666671,15.36325,428.7160416666671
5,2002-01-19,368.28808333333336,14.989291666666666,383.277375
5,2002-01-20,353.989125,14.898874999999999,368.888
5,2002-01-21,387.40825,15.530125,402.938375
5,2002-01-22,396.002625,15.711916666666667,411.7145416666667
5,2002-01-23,415.45925000000005,16.896375,432.35562500000003
5,2002-01-24,364.27116666666666,4.956583333333334,369.22775
5,2002-01-25,415.4312916666667,0.2237916666666667,415.6550833333334
5,2002-01-26,380.9051666666667,0.0,380.9051666666667
5,2002-01-27,378.1729166666671,0.0,378.1729166666671
5,2002-01-28,409.2997083333333,0.0,409.2997083333333
5,2002-01-29,403.9604583333333,5.625875,409.5863333333333
5,2002-01-30,407.47937499999995,14.874791666666667,422.35416666666663
5,2002-01-31,366.5525,20.230708333333332,386.78320833333333
5,2002-02-01,361.2160416666666,36.14241666666667,397.3584583333333
5,2002-02-02,340.85070833333333,15.875791666666666,356.7265
5,2002-02-03,337.18541666666664,15.049583333333333,352.23499999999996
5,2002-02-04,363.9440416666671,14.856625000000001,378.8006666666671
5,2002-02-05,341.57241666666664,47.837250000000004,389.4096666666666
5,2002-02-06,402.5998333333334,17.797166666666666,420.39700000000005
5,2002-02-07,377.86525,15.305708333333333,393.1709583333333
5,2002-02-08,395.2497916666667,28.333,423.5827916666667
5,2002-02-09,294.74441666666667,71.04845833333333,365.792875
5,2002-02-10,336.83004166666666,17.506666666666668,354.3367083333333
5,2002-02-11,14.143708333333334,14.438,28.581708333333335
5,2002-02-12,50.9275,13.91,64.8375
5,2002-02-13,409.20795833333335,15.247391304347826,424.4553496376812
5,2002-02-14,405.919625,24.352083333333336,430.2717083333333
5,2002-02-15,404.9820833333333,15.792499999999999,420.77458333333334
5,2002-02-16,346.73879166666666,14.622916666666667,361.3617083333333
5,2002-02-17,347.9570833333333,14.049583333333333,362.0066666666666
5,2002-02-18,381.2633333333333,15.314583333333333,396.5779166666667
5,2002-02-19,295.36125,103.04583333333333,398.40708333333333
5,2002-02-20,415.77495833333336,16.675833333333333,432.4507916666667
5,2002-02-21,336.07375,70.9225,406.99625000000003
5,2002-02-22,413.99287499999997,21.10375,435.09662499999996
5,2002-02-23,265.0825,87.78652173913044,352.8690217391304
5,2002-02-24,343.42125000000004,15.005,358.42625000000004
5,2002-02-25,389.06333333333333,16.270833333333332,405.33416666666665
5,2002-02-26,345.74629166666665,53.77333333333333,399.51962499999996
5,2002-02-27,401.97841666666665,15.072083333333333,417.0505
5,2002-02-28,369.7657916666667,15.725416666666668,385.49120833333336
5,2002-03-01,422.36254166666663,15.690416666666666,438.0529583333333
5,2002-03-02,345.68083333333334,15.415217391304349,361.0960507246377
5,2002-03-03,348.1620833333333,15.011666666666665,363.17375
5,2002-03-04,386.82666666666665,14.687083333333334,401.51374999999996
5,2002-03-05,386.3883333333333,15.078333333333333,401.46666666666664
5,2002-03-06,408.54041666666666,15.378749999999998,423.9191666666667
5,2002-03-07,392.60041666666666,14.790833333333333,407.39125
5,2002-03-08,425.520875,16.5475,442.068375
5,2002-03-09,273.18458333333336,100.60541666666667,373.79
5,2002-03-10,337.1616666666667,14.641666666666666,351.80333333333334
5,2002-03-11,385.212875,15.589166666666666,400.80204166666664
5,2002-03-12,392.840375,15.534999999999998,408.375375
5,2002-03-13,408.9995833333333,16.502916666666668,425.5025
5,2002-03-14,376.2733333333333,15.219166666666666,391.49249999999995
5,2002-03-15,406.5896666666667,16.391666666666666,422.98133333333334
5,2002-03-16,264.3545833333333,101.05541666666666,365.40999999999997
5,2002-03-17,344.095,14.202083333333334,358.2970833333334
5,2002-03-18,387.6895416666667,15.429166666666667,403.11870833333336
5,2002-03-19,391.0370833333333,14.687916666666666,405.725
5,2002-03-20,414.440875,14.909166666666666,429.3500416666667
5,2002-03-21,389.383,15.2725,404.65549999999996
5,2002-03-22,410.7170833333333,15.181666666666667,425.89874999999995
5,2002-03-23,357.058375,14.5625,371.620875
5,2002-03-24,332.1175,14.422173913043478,346.5396739130435
5,2002-03-25,373.6707916666667,26.204166666666666,399.8749583333333
5,2002-03-26,376.53125,15.415652173913044,391.94690217391303
5,2002-03-27,333.76166666666666,43.01826086956522,376.77992753623187
5,2002-03-28,391.01708333333335,15.874583333333334,406.89166666666665
5,2002-03-29,416.499125,17.05125,433.550375
5,2002-03-30,348.1579166666667,15.937916666666666,364.0958333333334
5,2002-03-31,337.1254166666667,15.829583333333334,352.95500000000004
5,2002-04-01,381.89620833333333,15.86125,397.7574583333333
5,2002-04-02,389.51045833333336,15.6775,405.18795833333337
5,2002-04-03,412.69166666666666,15.78375,428.47541666666666
5,2002-04-04,387.9392083333333,15.1975,403.1367083333333
5,2002-04-05,423.4291666666666,15.200833333333334,438.62999999999994
5,2002-04-06,357.64625,14.918333333333335,372.56458333333336
5,2002-04-07,344.37579166666666,15.287083333333333,359.662875
5,2002-04-08,362.8025,16.904545454545453,379.70704545454544
5,2002-04-09,421.075,18.009583333333335,439.08458333333334
5,2002-04-10,439.879125,16.84875,456.727875
5,2002-04-11,421.5708333333334,17.215833333333332,438.7866666666667
5,2002-04-12,477.3541666666667,19.286666666666665,496.6408333333334
5,2002-04-13,205.9908333333333,232.03173913043477,438.0225724637681
5,2002-04-14,404.02754166666665,16.992083333333333,421.01962499999996
5,2002-04-15,492.1249583333333,18.489583333333332,510.61454166666664
5,2002-04-16,0.0,,0.0
5,2002-04-17,508.7957916666667,77.8975,586.6932916666667
5,2002-04-18,520.775,34.22416666666667,554.9991666666666
5,2002-04-19,512.7083333333334,52.54,565.2483333333333
5,2002-04-20,364.55791666666664,16.0625,380.62041666666664
5,2002-04-21,359.2245833333333,14.405416666666667,373.63
5,2002-04-22,397.81712500000003,15.010833333333332,412.82795833333336
5,2002-04-23,399.86383333333333,15.426666666666668,415.2905
5,2002-04-24,436.67495833333334,19.138749999999998,455.81370833333335
5,2002-04-25,382.44250000000005,16.03,398.4725000000001
5,2002-04-26,428.97920833333336,15.9525,444.93170833333335
5,2002-04-27,362.8625,15.269166666666665,378.13166666666666
5,2002-04-28,341.56583333333333,15.776521739130436,357.34235507246376
5,2002-04-29,392.12375,14.6975,406.82124999999996
5,2002-04-30,388.14337500000005,16.3225,404.46587500000004
5,2002-05-01,432.8875,17.162499999999998,450.05
5,2002-05-02,393.24625,16.7425,409.98875
5,2002-05-03,413.4258333333333,16.15041666666667,429.57624999999996
5,2002-05-04,377.6425,16.190416666666668,393.8329166666667
5,2002-05-05,380.68670833333334,16.353333333333335,397.0400416666667
5,2002-05-06,421.73754166666663,23.722916666666666,445.4604583333333
5,2002-05-07,435.120875,18.907083333333333,454.02795833333334
5,2002-05-08,406.82958333333335,19.981666666666666,426.81125000000003
5,2002-05-09,437.22499999999997,18.094166666666666,455.31916666666666
5,2002-05-10,453.6458333333333,17.820416666666667,471.46625
5,2002-05-11,117.59500000000001,275.50875,393.10375000000005
5,2002-05-12,0.0,374.169625,374.169625
5,2002-05-13,0.0,393.11662500000006,393.11662500000006
5,2002-05-14,0.0,402.33370833333333,402.33370833333333
5,2002-05-15,0.0,440.7582916666667,440.7582916666667
5,2002-05-16,0.0,458.9459166666666,458.9459166666666
5,2002-05-17,0.0,432.5958333333333,432.5958333333333
5,2002-05-18,158.81,208.76791666666668,367.5779166666667
5,2002-05-19,355.29204166666665,14.29875,369.59079166666663
5,2002-05-20,398.53375,15.29875,413.8325
5,2002-05-21,396.2808333333333,15.942916666666667,412.22375
5,2002-05-22,432.2083333333333,17.867916666666666,450.07624999999996
5,2002-05-23,400.6824583333334,17.25086956521739,417.9333278985508
5,2002-05-24,467.7625,18.072916666666668,485.8354166666667
5,2002-05-25,284.4904166666667,108.25458333333334,392.74500000000006
5,2002-05-26,391.61287500000003,16.86625,408.479125
5,2002-05-27,389.454625,17.081666666666667,406.53629166666667
5,2002-05-28,438.5625,18.26,456.8225
5,2002-05-29,484.1791666666666,26.508333333333336,510.68749999999994
5,2002-05-30,483.67504166666663,19.169166666666666,502.8442083333333
5,2002-05-31,498.2708333333333,34.322916666666664,532.59375
5,2002-06-01,435.88745833333337,18.055416666666666,453.942875
5,2002-06-02,419.77500000000003,17.057083333333335,436.83208333333334
5,2002-06-03,432.91254166666664,17.2925,450.20504166666666
5,2002-06-04,0.0,,0.0
5,2002-06-05,0.0,,0.0
5,2002-06-06,0.0,,0.0
5,2002-06-07,0.0,,0.0
5,2002-06-08,0.0,,0.0
5,2002-06-09,0.0,,0.0
5,2002-06-10,0.0,,0.0
5,2002-06-11,0.0,,0.0
5,2002-06-12,0.0,,0.0
5,2002-06-13,442.76912500000003,28.170434782608694,470.93955978260874
5,2002-06-14,479.3667083333333,32.194583333333334,511.56129166666665
5,2002-06-15,424.7167083333333,17.19333333333333,441.91004166666664
5,2002-06-16,430.32916666666665,16.7075,447.03666666666663
5,2002-06-17,460.78754166666664,18.279166666666665,479.0667083333333
5,2002-06-18,445.7415833333334,18.2275,463.9690833333334
5,2002-06-19,415.7967083333333,79.30499999999999,495.1017083333333
5,2002-06-20,435.9266666666667,19.73375,455.66041666666666
5,2002-06-21,488.39995833333336,36.949999999999996,525.3499583333333
5,2002-06-22,454.2833333333333,18.899583333333332,473.18291666666664
5,2002-06-23,452.3125,19.51875,471.83125
5,2002-06-24,473.4708333333333,22.56833333333333,496.03916666666663
5,2002-06-25,470.53749999999997,34.321666666666665,504.8591666666666
5,2002-06-26,485.9707916666667,48.07875000000001,534.0495416666666
5,2002-06-27,452.9707916666667,26.24208333333333,479.212875
5,2002-06-28,481.7083333333333,32.132083333333334,513.8404166666667
5,2002-06-29,424.77500000000003,18.500833333333333,443.27583333333337
5,2002-06-30,428.19587499999994,18.685416666666665,446.8812916666666
5,2002-07-01,464.6582916666667,30.23375,494.89204166666667
5,2002-07-02,468.55,39.15625,507.70625
5,2002-07-03,495.595875,116.575,612.170875
5,2002-07-04,515.933375,127.63166666666666,643.5650416666666
5,2002-07-05,508.9707916666667,61.74333333333333,570.714125
5,2002-07-06,485.26666666666665,40.54125,525.8079166666666
5,2002-07-07,493.43333333333334,27.56625,520.9995833333334
5,2002-07-08,506.19995833333337,89.22375,595.4237083333334
5,2002-07-09,511.60408333333334,113.83333333333333,625.4374166666666
5,2002-07-10,512.995875,62.33625,575.3321249999999
5,2002-07-11,466.3040833333334,48.01291666666666,514.317
5,2002-07-12,472.6167083333333,76.64625,549.2629583333332
5,2002-07-13,44.604166666666664,457.704125,502.30829166666666
5,2002-07-14,513.879125,18.91125,532.790375
5,2002-07-15,523.1611666666666,62.34086956521739,585.5020362318841
5,2002-07-16,491.5917083333333,26.794166666666666,518.3858749999999
5,2002-07-17,441.4042083333333,76.60416666666667,518.008375
5,2002-07-18,473.75416666666666,20.095833333333335,493.85
5,2002-07-19,509.0167083333333,26.1775,535.1942083333333
5,2002-07-20,415.77624999999995,18.420416666666664,434.1966666666666
5,2002-07-21,418.575,18.83458333333333,437.40958333333333
5,2002-07-22,503.045875,28.00791666666667,531.0537916666667
5,2002-07-23,513.2666666666667,20.832916666666666,534.0995833333333
5,2002-07-24,524.9916666666667,34.587916666666665,559.5795833333333
5,2002-07-25,469.5292083333333,23.310833333333335,492.84004166666665
5,2002-07-26,556.2499583333333,47.10958333333334,603.3595416666667
5,2002-07-27,535.504125,20.267916666666668,555.7720416666667
5,2002-07-28,549.833375,27.772916666666664,577.6062916666667
5,2002-07-29,553.3583333333333,41.592083333333335,594.9504166666667
5,2002-07-30,552.1957916666667,30.80125,582.9970416666666
5,2002-07-31,544.4166666666666,82.73583333333333,627.1524999999999
5,2002-08-01,506.2375,74.57333333333334,580.8108333333333
5,2002-08-02,522.6374583333334,73.99708333333334,596.6345416666667
5,2002-08-03,421.75,61.904583333333335,483.65458333333333
5,2002-08-04,425.6542083333333,62.18375,487.8379583333333
5,2002-08-05,484.4291666666666,62.70291666666666,547.1320833333333
5,2002-08-06,468.1958333333334,60.862500000000004,529.0583333333334
5,2002-08-07,492.129125,66.44208333333333,558.5712083333333
5,2002-08-08,447.2166666666667,61.71625,508.9329166666667
5,2002-08-09,476.8709166666667,71.77041666666666,548.6413333333334
5,2002-08-10,465.6583333333333,61.88375,527.5420833333333
5,2002-08-11,479.5332916666667,61.78541666666666,541.3187083333333
5,2002-08-12,513.2291666666666,70.68541666666667,583.9145833333333
5,2002-08-13,529.8709166666666,73.40875,603.2796666666666
5,2002-08-14,545.8417083333333,89.92375,635.7654583333333
5,2002-08-15,544.2957916666667,77.55166666666666,621.8474583333333
5,2002-08-16,544.7832916666667,85.72541666666666,630.5087083333334
5,2002-08-17,172.03791666666666,365.06958333333336,537.1075000000001
5,2002-08-18,0.0,546.6792083333333,546.6792083333333
5,2002-08-19,0.0,534.5791666666667,534.5791666666667
5,2002-08-20,0.0,545.8042083333333,545.8042083333333
5,2002-08-21,0.0,558.7791666666667,558.7791666666667
5,2002-08-22,0.0,585.2916666666666,585.2916666666666
5,2002-08-23,185.46166666666667,389.142875,574.6045416666667
5,2002-08-24,444.6082916666667,61.55583333333333,506.164125
5,2002-08-25,419.51666666666665,61.43625,480.9529166666666
5,2002-08-26,348.06125,179.40625,527.4675
5,2002-08-27,467.229125,40.19541666666667,507.4245416666667
5,2002-08-28,464.5375833333333,48.96541666666667,513.5029999999999
5,2002-08-29,441.6542083333333,30.55666666666667,472.210875
5,2002-08-30,356.69083333333333,128.65083333333334,485.3416666666667
5,2002-08-31,0.0,499.0625,499.0625
5,2002-09-01,0.0,491.77079166666664,491.77079166666664
5,2002-09-02,0.0,508.6041666666667,508.6041666666667
5,2002-09-03,85.81375000000001,464.8042083333333,550.6179583333333
5,2002-09-04,472.75008333333335,31.129166666666666,503.87925
5,2002-09-05,451.72499999999997,29.820833333333336,481.5458333333333
5,2002-09-06,457.875,31.254166666666666,489.12916666666666
5,2002-09-07,414.2941666666666,30.93041666666667,445.22458333333327
5,2002-09-08,403.17787500000003,31.50375,434.68162500000005
5,2002-09-09,279.49125,188.7108695652174,468.20211956521734
5,2002-09-10,507.1232916666667,54.92,562.0432916666667
5,2002-09-11,472.208375,35.33208333333334,507.54045833333333
5,2002-09-12,388.64958333333334,71.235,459.88458333333335
5,2002-09-13,488.2583333333334,54.932500000000005,543.1908333333333
5,2002-09-14,427.3125416666667,31.545416666666668,458.85795833333333
5,2002-09-15,470.20824999999996,32.77375,502.98199999999997
5,2002-09-16,447.8958333333333,33.91708333333333,481.81291666666664
5,2002-09-17,443.5083333333334,39.15916666666667,482.6675000000001
5,2002-09-18,468.5541666666666,49.01458333333333,517.5687499999999
5,2002-09-19,439.7625,31.521666666666665,471.28416666666664
5,2002-09-20,473.81666666666666,33.49041666666667,507.3070833333333
5,2002-09-21,398.0525,30.859166666666667,428.9116666666667
5,2002-09-22,389.805875,30.336250000000003,420.142125
5,2002-09-23,432.64166666666665,33.39541666666667,466.0370833333333
5,2002-09-24,406.60083333333336,32.3775,438.97833333333335
5,2002-09-25,428.9291666666666,29.75125,458.6804166666666
5,2002-09-26,354.46458333333334,80.00166666666667,434.46625
5,2002-09-27,471.32925,36.9375,508.26675
5,2002-09-28,256.7033333333333,160.43458333333334,417.1379166666667
5,2002-09-29,373.31958333333336,29.081666666666667,402.40125
5,2002-09-30,428.7832916666667,30.667916666666667,459.45120833333334
